This is the latest recevied weather packets stored in our database for station/object KD2ZLA. If no packets are shown the sender has not sent any weather packets the latest 10 day(s).
| Time | Temp. | Humidity | Pressure | Rain* | Wind** | Luminosity | Snow |
|---|---|---|---|---|---|---|---|
| 1777919581 | 18.33° C | 45% | 1003.8 hPa | 0 mm | - | 705 W/m² | - |
| 1777919279 | 18.89° C | 44% | 1003.9 hPa | 0 mm | - | 784 W/m² | - |
| 1777918975 | 18.89° C | 44% | 1003.9 hPa | 0 mm | - | 782 W/m² | - |
| 1777918673 | 18.89° C | 48% | 1004 hPa | 0 mm | - | 793 W/m² | - |
| 1777918370 | 18.89° C | 45% | 1003.9 hPa | 0 mm | - | 790 W/m² | - |
| 1777918069 | 18.33° C | 45% | 1004.1 hPa | 0 mm | - | 823 W/m² | - |
| 1777917767 | 18.33° C | 44% | 1004.2 hPa | 0 mm | - | 808 W/m² | - |
| 1777917465 | 18.33° C | 45% | 1004.2 hPa | 0 mm | - | 787 W/m² | - |
| 1777917161 | 18.33° C | 46% | 1004.2 hPa | 0 mm | - | 825 W/m² | - |
| 1777916859 | 18.33° C | 44% | 1004.3 hPa | 0 mm | - | 851 W/m² | - |
| 1777916557 | 18.33° C | 45% | 1004.3 hPa | 0 mm | - | 214 W/m² | - |
| 1777916253 | 18.33° C | 46% | 1004.4 hPa | 0 mm | - | 864 W/m² | - |
| 1777915950 | 17.78° C | 47% | 1004.3 hPa | 0 mm | - | 863 W/m² | - |
| 1777915647 | 17.78° C | 46% | 1004.4 hPa | 0 mm | - | 842 W/m² | - |
| 1777915343 | 17.78° C | 47% | 1004.4 hPa | 0 mm | - | 864 W/m² | - |
| 1777915040 | 17.78° C | 46% | 1004.3 hPa | 0 mm | - | 864 W/m² | - |
| 1777914737 | 17.22° C | 47% | 1004.3 hPa | 0 mm | - | 864 W/m² | - |
| 1777914434 | 17.22° C | 47% | 1004.1 hPa | 0 mm | - | 864 W/m² | - |
| 1777914131 | 17.78° C | 47% | 1004.1 hPa | 0 mm | - | 864 W/m² | - |
| 1777913827 | 17.78° C | 47% | 1004.4 hPa | 0 mm | - | 864 W/m² | - |
| 1777913523 | 17.78° C | 46% | 1004.5 hPa | 0 mm | - | 864 W/m² | - |
| 1777913220 | 17.22° C | 49% | 1004.3 hPa | 0 mm | - | 864 W/m² | - |
| 1777912916 | 17.22° C | 49% | 1004.4 hPa | 0 mm | - | 864 W/m² | - |
| 1777912613 | 17.22° C | 49% | 1004.4 hPa | 0 mm | - | 864 W/m² | - |
| 1777912310 | 16.67° C | 47% | 1004.6 hPa | 0 mm | - | 860 W/m² | - |
* Rain latest hour (hover to see other rain measurements)
** Current wind speed in m/s (hover to see current wind gust speed)